Location: Newark
(38.1089°N, 103.8675°W)
Time: 22:45:40
(UTC+00:00)

Envisat - Pass Details

Date: 24 December 2019
Orbit: 764 x 766 km, 98.1° (Epoch: 21 January)

Event Time Altitude Azimuth Distance (km) Brightness Sun altitude
Rises 12:42:46 0° 27° (NNE) 3,237 6.4 -16.5°
Reaches altitude 10° 12:45:33 10° 42° (NE) 2,306 5.8 -16.0°
Maximum altitude 12:49:33 23° 94° (E) 1,577 5.6 -15.2°
Drops below altitude 10° 12:53:32 10° 146° (SSE) 2,293 6.3 -14.5°
Sets 12:56:16 0° 161° (SSE) 3,214 6.8 -14.0°
